Regional Weather Roundup
Issued by NWS

Home | Current Version | Previous Version | Text Only | Print | Product List | Glossary On
Versions: 1 2 3 4 5 6 7 8 9 10 11 12 13 14 15 16 17 18 19 20 21 22 23 24 25 26 27 28
000
ASUS42 KKEY 241910
RWRKEY

FLORIDA REGIONAL WEATHER ROUNDUP FOR THE FLORIDA KEYS
NATIONAL WEATHER SERVICE KEY WEST FLORIDA
200 PM EST FRI NOV 24 2017

...SOUTH FLORIDA AND THE KEYS...

CITY           SKY/WX    TMP DP  RH WIND       PRES   REMARKS
FORT MYERS     MOSUNNY   75  64  68 NW14      29.88S
SW REGIONAL AP PTSUNNY   74  64  71 W9        29.88F
NAPLES         MOSUNNY   74  64  71 W16       29.89F
MIAMI          PTSUNNY   81  67  62 W9G17     29.86F
WEST KENDALL   MOSUNNY   78  65  63 W10       29.86F
HOMESTEAD      MOSUNNY   81  73  74 W9        29.85F
MARATHON       SUNNY     80  66  62 NW9       29.88F
KEY WEST INTL  PTSUNNY   80  70  71 NW12      29.90F

...INTERNATIONAL WEATHER...

CITY           SKY/WX    TMP DP  RH WIND       PRES   REMARKS
NASSAU BAHAMAS NOT AVBL
CANCUN MEXICO  PTSUNNY   81  64  57 NW12      29.95F
COZUMEL MEXICO MOSUNNY   81  64  57 NW13      29.93F

ADJACENT COASTAL WATERS...

STATION/POSITION TIME  SKY/WX   TEMP    WIND        PRES    WAVE
                                AIR SEA DIR/SP/G            HT/PER
                 (UTC)          (F)     (DEG/KT/KT) (MB)    (FT/S)
PULASKI SHOAL LI 1900            76      10/ 11/ 12 1012.7F
SAND KEY         1850            75                 1013.2F
LONG KEY         NOT AVBL
MOLASSES REEF    1900            77 80  290/  9/ 11 1011.8F
FOWEY ROCKS      1900            76 80  270/  8/ 10 1011.6F
Buoy 42097       1830               79                N/A     4/ 7

$$




USA.gov is the U.S. government's official web portal to all federal, state and local government web resources and services.